Flag for Poland Weather past 2 weeks in Kraków, Poland

Now
34 °F

Snow flurries. Fog.


Feels Like: 25 °F
Forecast: 29 / 40 °F
Wind: 13 mph from West

Location: Krakow Airport

Current Time: Mar 3, 2015 at 9:55:04 AM

Latest Report: Mar 3, 2015 at 9:30 AM


Visibility: 3 mi

Pressure: 29.98 "Hg

Humidity: 93%

Dew point: 32 °F

Location of KrakówLocation

Historic Weather in Kraków — Graph

°F

Kraków temperature yesterday

Maximum temperature yesterday: 46 °F (at 2:00 PM)
Minimum temperature yesterday: 32 °F (at 4:00 AM)
Average temperature yesterday: 39 °F

Past Weeks' High & Low Weather Summary

 TemperatureHumidityPressure
High54 °F (Feb 23, 3:30 PM)100% (Feb 20, 5:00 AM)30.72 "Hg (Feb 20, 5:00 AM)
Low19 °F (Feb 18, 3:00 AM)32% (Feb 21, 3:30 PM)29.53 "Hg (Feb 23, 4:30 PM)
Average37 °F82%30.02 "Hg
* Reported Feb 16 9:00 AM — Mar 3 9:00 AM, Kraków, Weather by CustomWeather, © 2015

Note: Actual official high and low records may vary slightly from our data, if they occured in-between our weather recording intervals... More about our weather records

Advertising

Kraków weather history for previous 24 hours

 ConditionsComfort  
Time TempWeatherWind HumidityBarometerVisibility
9:00 AM
Tue, Mar 3
34 °FPartly sunny.15 mph100%29.98 "HgN/A
8:30 AM32 °FLight snow. Ice fog.13 mph100%29.98 "Hg3 mi
8:00 AM32 °FSnow flurries. Ice fog.16 mph100%29.95 "Hg2 mi
7:30 AM32 °FSnow showers. Ice fog.13 mph100%29.95 "Hg1 mi
7:00 AM34 °FSnow flurries. Fog.15 mph93%29.92 "Hg1 mi
6:30 AM32 °FSnow showers. Ice fog.13 mph100%29.89 "Hg1 mi
6:00 AM34 °FSnow flurries. Fog.14 mph93%29.89 "Hg3 mi
5:30 AM34 °FPassing clouds.10 mph93%29.89 "Hg4 mi
5:00 AM30 °FPassing clouds.5 mph100%29.86 "Hg4 mi
4:30 AM28 °FPassing clouds.No wind100%29.86 "Hg4 mi
4:00 AM30 °FClear.3 mph100%29.83 "Hg4 mi
3:30 AM28 °FPassing clouds.2 mph93%29.83 "Hg5 mi
3:00 AM28 °FPassing clouds.2 mph93%29.83 "Hg5 mi
2:30 AM30 °FPassing clouds.1 mph100%29.83 "HgN/A
2:00 AM30 °FPassing clouds.1 mph100%29.83 "HgN/A
1:30 AM30 °FClear.No wind93%29.83 "Hg10 mi
1:00 AM28 °FClear.1 mph100%29.83 "Hg10 mi
12:30 AM30 °FPassing clouds.1 mph93%29.83 "HgN/A
12:00 AM32 °FPassing clouds.2 mph93%29.80 "HgN/A
11:30 PM
Mon, Mar 2
32 °FPassing clouds.5 mph93%29.80 "HgN/A
11:00 PM32 °FClear.3 mph93%29.80 "Hg10 mi
10:30 PM34 °FClear.3 mph93%29.77 "Hg10 mi
10:00 PM36 °FClear.7 mph87%29.77 "Hg10 mi
9:30 PM36 °FClear.8 mph87%29.77 "Hg10 mi
9:00 PM37 °FClear.10 mph81%29.74 "Hg10 mi
8:30 PM36 °FPassing clouds.7 mph93%29.74 "HgN/A
8:00 PM37 °FPassing clouds.5 mph93%29.71 "HgN/A
7:30 PM37 °FPassing clouds.6 mph93%29.71 "HgN/A
7:00 PM37 °FPassing clouds.6 mph93%29.68 "HgN/A
6:30 PM37 °FSprinkles. Passing clouds.8 mph93%29.68 "HgN/A
6:00 PM41 °FThunderstorms. Partly cloudy.17 mph87%29.65 "HgN/A
5:30 PM43 °FSprinkles. Passing clouds.2 mph81%29.62 "HgN/A
5:00 PM45 °FPartly sunny.8 mph76%29.59 "HgN/A
4:30 PM46 °FPartly sunny.8 mph71%29.56 "HgN/A
4:00 PM46 °FPassing clouds.15 mph66%29.56 "HgN/A
3:30 PM46 °FPassing clouds.18 mph71%29.56 "HgN/A
3:00 PM46 °FPassing clouds.15 mph76%29.56 "HgN/A
2:30 PM46 °FScattered clouds.9 mph87%29.56 "HgN/A
2:00 PM46 °FScattered clouds.5 mph87%29.53 "HgN/A
1:30 PM45 °FScattered clouds.1 mph87%29.53 "HgN/A
1:00 PM45 °FPartly sunny.2 mph87%29.53 "HgN/A
12:30 PM45 °FPartly sunny.6 mph87%29.56 "HgN/A
12:00 PM43 °FSprinkles. Partly sunny.2 mph93%29.53 "HgN/A
11:30 AM43 °FPartly sunny.2 mph87%29.53 "HgN/A
11:00 AM43 °FSprinkles. Partly sunny.6 mph87%29.56 "Hg4 mi
10:30 AM43 °FLight rain. Scattered clouds.No wind81%29.56 "HgN/A
10:00 AM41 °FPassing clouds.2 mph87%29.56 "HgN/A
9:30 AM39 °FPassing clouds.3 mph93%29.56 "HgN/A
9:00 AM39 °FPartly sunny.3 mph93%29.59 "HgN/A
Weather by CustomWeather, © 2015

See weather overviewHow to use our weather pages